Historical Weather Data

Kanab, UT VWS

Date ET
(Inches)
Rain
(Inches)
Temp °F
Humidity
Avg
Wind MPH
Avg
Solar Wm2
Avg
High Ave Low
01/01/2019 12:00 am 0.035 0.00 28.0 19.2 12.0 51 2.4 132
01/02/2019 12:00 am 0.039 0.00 32.0 19.7 10.0 42 2.4 136
01/03/2019 12:00 am 0.043 0.00 39.0 25.2 14.0 45 2.0 135
01/04/2019 12:00 am 0.058 0.00 47.0 31.4 19.3 52 4.1 130
01/05/2019 12:00 am 0.045 0.07 44.0 32.3 22.0 55 3.6 85
01/06/2019 12:00 am 0.016 0.26 37.0 32.0 27.0 85 3.9 33
01/07/2019 12:00 am 0.027 0.00 41.0 33.9 28.0 83 3.3 61
01/08/2019 12:00 am 0.035 0.00 43.0 33.8 27.0 82 5.0 91
01/09/2019 12:00 am 0.044 0.00 44.0 35.3 29.0 75 4.6 115
01/10/2019 12:00 am 0.042 0.00 46.0 35.2 28.0 75 2.5 122
01/11/2019 12:00 am 0.039 0.00 44.0 33.5 26.0 72 3.2 104
01/12/2019 12:00 am 0.048 0.00 43.0 33.0 25.0 65 3.3 125
01/13/2019 12:00 am 0.044 0.00 42.0 33.6 25.0 71 3.2 118
01/14/2019 12:00 am 0.035 0.04 43.0 32.7 27.0 73 4.7 71
01/15/2019 12:00 am 0.008 0.61 38.0 34.3 31.0 89 2.3 8
01/16/2019 12:00 am 0.022 0.05 43.0 36.2 30.0 91 3.1 42
01/17/2019 12:00 am 0.021 0.30 46.0 39.8 33.0 83 3.6 11
01/18/2019 12:00 am 0.058 0.04 45.0 37.5 28.0 71 3.3 137
01/19/2019 12:00 am 0.048 0.00 46.0 34.6 25.7 65 1.4 135
01/20/2019 12:00 am 0.047 0.00 48.0 37.0 29.0 65 2.2 113
01/21/2019 12:00 am 0.034 0.06 41.0 34.4 29.0 69 5.7 87
01/22/2019 12:00 am 0.052 0.00 37.0 28.2 22.0 60 3.3 152
01/23/2019 12:00 am 0.053 0.00 42.0 30.2 21.0 52 1.7 154
01/24/2019 12:00 am 0.057 0.00 46.0 33.3 26.0 60 3.1 153
01/25/2019 12:00 am 0.060 0.00 47.0 33.1 23.0 55 2.4 155
01/26/2019 12:00 am 0.065 0.00 48.0 35.4 25.7 54 3.0 150
01/27/2019 12:00 am 0.061 0.00 51.0 37.8 28.0 57 2.1 143
01/28/2019 12:00 am 0.081 0.00 53.0 39.0 31.0 52 3.9 145
01/29/2019 12:00 am 0.059 0.00 51.0 38.0 27.0 58 3.1 119
01/30/2019 12:00 am 0.068 0.00 49.0 37.4 29.0 53 3.1 161
01/31/2019 12:00 am 0.062 0.00 52.0 39.5 29.0 57 2.0 148
02/01/2019 12:00 am 0.051 0.00 53.0 41.5 32.0 58 2.1 104
02/02/2019 12:00 am 0.034 0.39 51.0 43.3 35.0 74 4.2 29
02/03/2019 12:00 am 0.065 0.24 48.0 44.0 39.0 74 6.9 113
02/04/2019 12:00 am 0.048 0.07 48.0 40.9 35.0 72 5.9 62
02/05/2019 12:00 am 0.040 0.50 41.0 37.2 31.0 75 7.8 32
02/06/2019 12:00 am 0.046 0.05 29.0 24.9 20.0 68 6.9 142
02/07/2019 12:00 am 0.049 0.00 31.0 22.1 15.0 56 1.4 180
02/08/2019 12:00 am 0.049 0.00 34.0 24.4 17.0 58 2.5 179
02/09/2019 12:00 am 0.048 0.00 40.0 29.6 20.0 60 2.7 124
02/10/2019 12:00 am 0.072 0.11 43.0 33.1 25.0 61 5.8 172
02/11/2019 12:00 am 0.060 0.01 36.0 26.8 18.0 56 3.3 185
02/12/2019 12:00 am 0.063 0.00 43.0 29.5 18.0 53 2.1 174
02/13/2019 12:00 am 0.053 0.02 47.0 36.4 27.0 53 2.9 91
02/14/2019 12:00 am 0.016 0.80 45.0 40.1 35.0 79 2.6 12
02/15/2019 12:00 am 0.061 0.04 47.0 38.6 33.0 74 8.1 97
02/16/2019 12:00 am 0.063 0.05 39.0 32.5 27.0 65 5.1 169
02/17/2019 12:00 am 0.035 0.08 36.0 29.1 25.0 69 1.9 91
02/18/2019 12:00 am 0.023 0.13 33.0 26.4 22.0 79 2.9 53
02/19/2019 12:00 am 0.055 0.00 31.0 21.6 16.0 65 3.4 195
02/20/2019 12:00 am 0.021 0.19 31.0 22.5 13.0 73 3.9 28
02/21/2019 12:00 am 0.012 0.41 31.0 26.6 22.0 85 3.0 11
02/22/2019 12:00 am 0.053 0.00 33.0 23.4 14.0 76 2.5 185
02/23/2019 12:00 am 0.053 0.00 34.0 20.8 8.0 66 2.4 192
02/24/2019 12:00 am 0.062 0.00 38.0 25.9 15.0 67 1.5 208
02/25/2019 12:00 am 0.070 0.00 43.0 31.3 21.0 63 1.3 204
02/26/2019 12:00 am 0.079 0.00 51.0 37.9 26.0 59 1.5 197
02/27/2019 12:00 am 0.089 0.00 54.0 41.9 34.0 55 3.1 191
02/28/2019 12:00 am 0.083 0.00 56.0 43.5 34.0 64 2.8 176
03/01/2019 12:00 am 0.096 0.00 58.0 45.7 36.0 63 2.8 189
03/02/2019 12:00 am 0.033 0.50 50.7 44.6 39.0 70 4.1 19
03/03/2019 12:00 am 0.081 0.01 51.0 44.7 40.0 76 4.9 157
03/04/2019 12:00 am 0.092 0.00 55.0 45.7 38.0 69 3.0 207
03/05/2019 12:00 am 0.083 0.03 57.3 45.5 35.0 58 2.2 176
03/06/2019 12:00 am 0.046 0.38 54.0 46.8 42.0 74 6.2 31
03/07/2019 12:00 am 0.090 0.01 52.0 45.4 41.0 70 5.4 174
03/08/2019 12:00 am 0.043 0.05 43.0 38.1 33.0 79 7.1 77
03/09/2019 12:00 am 0.094 0.00 48.0 38.0 29.0 64 4.1 214
03/10/2019 12:00 am 0.045 0.00 49.0 40.2 30.0 59 1.2 92
03/11/2019 12:00 am 0.067 0.02 55.0 43.9 33.0 58 2.4 113
03/12/2019 12:00 am 0.047 0.15 53.0 44.7 38.3 72 2.6 73
03/13/2019 12:00 am 0.095 0.08 41.0 37.4 33.0 56 6.4 233
03/14/2019 12:00 am 0.099 0.00 48.0 37.0 28.0 53 3.0 254
03/15/2019 12:00 am 0.111 0.00 52.0 39.2 29.0 52 4.4 260
03/16/2019 12:00 am 0.122 0.00 57.0 43.2 31.5 47 3.7 265
03/17/2019 12:00 am 0.133 0.00 61.0 46.8 32.0 43 3.0 266
03/18/2019 12:00 am 0.132 0.00 64.0 49.3 37.0 43 2.6 264
03/19/2019 12:00 am 0.133 0.00 66.0 51.7 37.0 43 2.6 241
03/20/2019 12:00 am 0.148 0.10 60.0 51.2 41.0 42 5.0 243
03/21/2019 12:00 am 0.055 0.20 51.0 43.1 37.3 68 2.8 104
03/22/2019 12:00 am 0.072 0.00 51.0 40.3 32.0 68 2.7 175
03/23/2019 12:00 am 0.115 0.00 57.0 44.4 32.0 58 2.3 238
03/24/2019 12:00 am 0.135 0.00 60.0 47.3 37.0 53 3.2 273
03/25/2019 12:00 am 0.146 0.00 67.0 48.7 34.0 41 4.0 279
03/26/2019 12:00 am 0.167 0.00 67.0 53.6 40.0 36 3.7 275
03/27/2019 12:00 am 0.192 0.00 68.0 54.4 42.0 32 5.1 282
03/28/2019 12:00 am 0.178 0.00 65.0 52.4 41.0 31 4.7 286
03/29/2019 12:00 am 0.151 0.00 58.0 48.3 38.0 39 2.7 293
03/30/2019 12:00 am 0.139 0.00 56.0 44.6 33.0 40 3.3 290
03/31/2019 12:00 am 0.144 0.00 58.0 45.6 35.0 43 3.8 296
04/01/2019 12:00 am 0.147 0.00 62.0 47.9 33.0 38 3.0 285
04/02/2019 12:00 am 0.150 0.02 61.0 49.8 37.0 36 4.1 254
04/03/2019 12:00 am 0.143 0.02 61.0 50.5 41.0 55 4.2 283
04/04/2019 12:00 am 0.128 0.00 65.0 51.7 40.0 48 2.8 216
04/05/2019 12:00 am 0.116 0.00 65.0 51.4 41.0 47 2.9 187
04/06/2019 12:00 am 0.153 0.00 62.0 52.3 44.0 54 3.1 289
04/07/2019 12:00 am 0.169 0.00 72.0 55.3 36.0 44 2.2 309
04/08/2019 12:00 am 0.189 0.00 78.0 60.2 43.0 35 2.9 303
04/09/2019 12:00 am 0.264 0.00 74.0 60.1 48.0 29 10.1 311
04/10/2019 12:00 am 0.158 0.00 53.0 45.1 38.0 40 8.6 296
04/11/2019 12:00 am 0.132 0.00 54.0 43.4 32.0 48 3.1 274
04/12/2019 12:00 am 0.127 0.00 52.0 43.7 35.0 57 2.8 291
04/13/2019 12:00 am 0.156 0.00 63.0 47.4 32.0 44 3.2 324
04/14/2019 12:00 am 0.205 0.00 69.0 53.2 34.0 34 5.3 327
04/15/2019 12:00 am 0.219 0.00 71.0 56.9 42.0 31 6.0 321
04/16/2019 12:00 am 0.073 0.27 52.0 48.1 44.0 57 4.2 88
04/17/2019 12:00 am 0.183 0.01 66.0 51.6 38.0 51 4.5 331
04/18/2019 12:00 am 0.179 0.00 76.0 58.4 39.0 39 2.5 333
04/19/2019 12:00 am 0.201 0.00 79.0 63.6 47.0 30 2.8 331
04/20/2019 12:00 am 0.213 0.00 76.0 61.7 47.0 26 3.5 328
04/21/2019 12:00 am 0.197 0.00 68.0 58.2 47.0 42 4.3 323
04/22/2019 12:00 am 0.182 0.00 67.0 54.9 42.0 48 3.2 325
04/23/2019 12:00 am 0.194 0.00 70.0 59.3 45.0 46 4.0 336
04/24/2019 12:00 am 0.203 0.00 78.0 63.3 45.0 40 2.5 338
04/25/2019 12:00 am 0.203 0.00 77.0 63.1 49.0 39 2.5 333
04/26/2019 12:00 am 0.231 0.00 82.0 65.8 47.0 34 3.6 336
04/27/2019 12:00 am 0.232 0.00 80.0 66.4 50.0 28 3.3 344
04/28/2019 12:00 am 0.211 0.00 79.0 66.0 49.0 28 4.3 267
04/29/2019 12:00 am 0.092 0.63 63.0 55.5 46.0 52 2.7 127
04/30/2019 12:00 am 0.140 0.03 61.0 51.9 42.5 62 5.2 220
05/01/2019 12:00 am 0.164 0.01 62.0 49.8 39.0 54 2.2 345
05/02/2019 12:00 am 0.189 0.00 68.0 53.3 38.0 40 2.4 356
05/03/2019 12:00 am 0.198 0.00 72.0 57.8 41.0 29 2.1 354
05/04/2019 12:00 am 0.202 0.00 76.0 61.4 42.0 29 1.9 351
05/05/2019 12:00 am 0.207 0.00 78.0 63.2 45.0 25 2.2 336
05/06/2019 12:00 am 0.222 0.00 75.0 61.0 45.0 26 2.8 360
05/07/2019 12:00 am 0.155 0.03 68.0 54.3 43.0 48 2.3 272
05/08/2019 12:00 am 0.159 0.01 64.0 54.4 45.0 54 3.1 284
05/09/2019 12:00 am 0.121 0.06 60.0 51.2 45.0 57 2.5 224
05/10/2019 12:00 am 0.081 0.19 62.0 52.7 46.0 69 2.9 128
05/11/2019 12:00 am 0.179 0.00 67.0 55.8 44.0 63 1.9 334
05/12/2019 12:00 am 0.203 0.00 75.0 60.2 43.0 40 1.7 362
05/13/2019 12:00 am 0.223 0.00 79.0 64.0 44.0 33 2.1 364
05/14/2019 12:00 am 0.220 0.00 80.0 65.5 49.0 33 2.2 351
05/15/2019 12:00 am 0.232 0.00 79.0 65.7 50.0 33 3.3 344
05/16/2019 12:00 am 0.222 0.05 73.0 60.3 49.0 42 5.0 319
05/17/2019 12:00 am 0.174 0.01 58.0 49.2 40.0 52 3.9 338
05/18/2019 12:00 am 0.142 0.00 65.0 51.2 34.0 45 2.4 247
05/19/2019 12:00 am 0.088 0.25 57.0 48.3 44.0 55 2.9 159
05/20/2019 12:00 am 0.096 0.05 52.0 42.9 36.0 74 3.0 223
05/21/2019 12:00 am 0.136 0.03 58.0 48.2 41.0 61 4.4 229
05/22/2019 12:00 am 0.086 0.05 54.0 44.1 38.0 71 2.2 164